Meteopurmerend
purmerend
Purmerend - Baaienwijk



My webcam  My webcam


Onweer radar Meer informatie blitzortung!


Regen radar Meer informatie rain snow radar


Bezoek onze andere website:

CandyAppleRed WebdesignWebdesign Purmerend Candy Apple Red

MeteopurmerendBlog

Template documentation
and downloads



We konden geen weer-waarchuwingen ophalen. Ga rechtstreeks naar de Meteoalarm site : www.meteoalarm.eu en controleer daar .

15 daagse weersverwachting Lillehammer (NO)

  • Overzicht
  • Per uur
  • 15 dagen
  • Extra
  • Vergelijk
  • Kaarten
  • Dagkaart
  • Meer »
  • Info
  • Statistieken
  • Directe link
    Temp 6h Neerslag Wind  
 05:28     21:19    Daglengte: 15:51 Vandaag
20:00
22°
 
2
 05:30     21:16    Daglengte: 15:46 Morgen
02:00
17°
 
1
08:00
17°
 
1
14:00
24°
 
3
20:00
22°
 
4
 05:33     21:13    Daglengte: 15:40 Dinsdag 16 Aug
02:00
17°
11.3 mm
2
warningclass
08:00
18°
13.3 mm
3
warningclass
14:00
20°
8.0 mm
2
warningclass
20:00
18°
22.4 mm
2
warningclass
 05:35     21:10    Daglengte: 15:35 Woensdag 17 Aug
02:00
17°
20.3 mm
2
08:00
16°
23.2 mm
2
warningclass
14:00
16°
12.4 mm
2
Locatie info
Region: Oppland
Latitude: 61.1150°N
Longitude: 10.4636°E
210 masl
Postcode: 2609
Temp/Neerslag /Baro Onweer/Dauwpunt
    Temp Baro 1h Neerslag Dauwpunt Wind UV Bewolking  
 05:28     21:19    Daglengte: 15:51 Vandaag
20:00
22°
1013.1 hPa   13.4°
2
Windvlaag: 6.6 m/s
72%
21:00
21°
1013.6 hPa   13.8°
2
Windvlaag: 5 m/s
67%
22:00
19°
1013.5 hPa   13.2°
2
Windvlaag: 3.7 m/s
67%
23:00
19°
1013.5 hPa   13.2°
2
Windvlaag: 3 m/s
72%
 05:30     21:16    Daglengte: 15:46 Morgen
00:00
18°
1013.3 hPa   13.2°
2
Windvlaag: 2.9 m/s
80%
01:00
18°
1013.2 hPa
16%
13.2°
1
Windvlaag: 2.5 m/s
77%
02:00
17°
1013.0 hPa
18%
13.2°
1
Windvlaag: 1.1 m/s
71%
03:00
17°
1013.1 hPa
17%
14.0°
1
Windvlaag: 0.7 m/s
69%
04:00
16°
1013.4 hPa
17%
13.9°
1
Windvlaag: 0.2 m/s
74%
05:00
15°
1013.2 hPa
18%
13.4°
1
Windvlaag: -0 m/s
85%
06:00
15°
1012.8 hPa
16%
12.8°
1
Windvlaag: -0.2 m/s
43%
07:00
15°
1012.6 hPa   13.2°
1
Windvlaag: -0.2 m/s
68%
08:00
17°
1012.5 hPa   14.1°
1
Windvlaag: 0.2 m/s
83%
09:00
19°
1012.3 hPa   13.8°
1
Windvlaag: 2 m/s
66%
10:00
20°
1012.1 hPa   13.6°
1
Windvlaag: 3.6 m/s
72%
11:00
21°
1011.9 hPa
19%
14.0°
2
Windvlaag: 5.1 m/s
72%
12:00
22°
1011.4 hPa   14.5°
2
Windvlaag: 6.4 m/s
56%
13:00
23°
1010.9 hPa   14.1°
3
Windvlaag: 6.9 m/s
38%
14:00
24°
1010.4 hPa   13.6°
3
Windvlaag: 7 m/s
29%
15:00
24°
1010.0 hPa   12.8°
4
Windvlaag: 6.8 m/s
14%
16:00
25°
1009.7 hPa   11.1°
4
Windvlaag: 6.7 m/s
34%
17:00
25°
1009.2 hPa   11.5°
4
Windvlaag: 6.6 m/s
37%
18:00
24°
1008.9 hPa   15.7°
4
Windvlaag: 6.5 m/s
33%
19:00
24°
1008.6 hPa   15.3°
3
Windvlaag: 5.3 m/s
48%
20:00
22°
1008.9 hPa   16.2°
4
Windvlaag: 7 m/s
30%
21:00
20°
1009.5 hPa   17.0°
3
Windvlaag: 6.6 m/s
51%
22:00
19°
1010.1 hPa 1.9 mm
22%
17.0°
2
Windvlaag: 6.7 m/s
73%
23:00
18°
1010.0 hPa 2.5 mm
22%
16.8°
1
Windvlaag: 4.5 m/s
82%
 05:33     21:13    Daglengte: 15:40 Dinsdag 16 Aug
00:00
17°
1010.0 hPa 1.4 mm
22%
16.7°
1
Windvlaag: 4.7 m/s
84%
01:00
17°
1010.1 hPa 2.4 mm
32%
16.8°
2
Windvlaag: 4.4 m/s
86%
02:00
17°
1009.9 hPa 3.1 mm
74%
16.9°
2
Windvlaag: 2.9 m/s
86% warningclass
03:00
17°
1009.5 hPa 2.9 mm
78%
16.9°
1
Windvlaag: 2.8 m/s
86% warningclass
04:00
17°
1009.1 hPa 2.9 mm
78%
17.0°
1
Windvlaag: 3.2 m/s
86% warningclass
05:00
17°
1008.7 hPa 2.0 mm
80%
16.9°
2
Windvlaag: 3.7 m/s
86% warningclass
06:00
17°
1008.7 hPa 1.8 mm
82%
16.7°
2
Windvlaag: 4 m/s
86% warningclass
07:00
17°
1008.5 hPa 1.9 mm
82%
17.0°
2
Windvlaag: 4.7 m/s
86% warningclass
08:00
18°
1008.2 hPa 1.9 mm
82%
17.1°
3
Windvlaag: 5.3 m/s
86% warningclass
09:00
18°
1008.0 hPa 1.9 mm
82%
17.4°
2
Windvlaag: 5.2 m/s
86% warningclass
10:00
18°
1007.9 hPa 1.4 mm
82%
17.4°
3
Windvlaag: 4.3 m/s
86% warningclass
11:00
19°
1007.7 hPa
82%
17.7°
3
Windvlaag: 4.5 m/s
86% warningclass
12:00
19°
1007.2 hPa 1.4 mm
82%
17.7°
2
Windvlaag: 7.8 m/s
86% warningclass
13:00
19°
1006.8 hPa 1.8 mm
82%
17.5°
2
Windvlaag: 7.7 m/s
86% warningclass
14:00
20°
1006.3 hPa 1.6 mm
82%
18.0°
2
Windvlaag: 7.2 m/s
82% warningclass
15:00
20°
1005.9 hPa 2.7 mm
82%
18.8°
2
Windvlaag: 5.7 m/s
86% warningclass
16:00
20°
1005.7 hPa 4.1 mm
82%
17.8°
3
Windvlaag: 7.8 m/s
86% warningclass
17:00
19°
1006.0 hPa 4.2 mm
100%
17.6°
2
Windvlaag: 6.8 m/s
99% warningclass
18:00
18°
1005.7 hPa 4.0 mm
100%
16.6°
2
Windvlaag: 5 m/s
100% warningclass
19:00
18°
1005.4 hPa 3.9 mm
100%
17.1°
2
Windvlaag: 5.5 m/s
100%
20:00
18°
1005.4 hPa 3.5 mm
100%
17.3°
2
Windvlaag: 5.5 m/s
99% warningclass
21:00
18°
1005.7 hPa 3.4 mm
100%
16.7°
2
Windvlaag: 5.2 m/s
100%
22:00
17°
1005.8 hPa 3.5 mm
100%
16.7°
2
Windvlaag: 5.2 m/s
100%
23:00
17°
1006.0 hPa 3.3 mm
100%
17.2°
2
Windvlaag: 5.3 m/s
98%
 05:35     21:10    Daglengte: 15:35 Woensdag 17 Aug
00:00
17°
1005.9 hPa 3.4 mm
100%
17.1°
2
Windvlaag: 5.8 m/s
99% warningclass
01:00
17°
1005.9 hPa 3.2 mm
100%
17.0°
2
Windvlaag: 5.4 m/s
95%
02:00
17°
1005.9 hPa 3.5 mm
100%
16.8°
2
Windvlaag: 5.2 m/s
99%
03:00
17°
1005.9 hPa 3.6 mm
100%
16.4°
2
Windvlaag: 5.1 m/s
100% warningclass
04:00
16°
1006.0 hPa 3.7 mm
100%
16.3°
2
Windvlaag: 4.5 m/s
99% warningclass
05:00
16°
1006.0 hPa 3.8 mm
100%
16.2°
2
Windvlaag: 4.5 m/s
100% warningclass
06:00
16°
1006.0 hPa 3.8 mm
100%
15.9°
2
Windvlaag: 4.3 m/s
100% warningclass
07:00
16°
1006.3 hPa 3.9 mm
100%
15.4°
2
Windvlaag: 4.4 m/s
100%
08:00
16°
1006.9 hPa 4.4 mm
100%
13.9°
2
Windvlaag: 3.6 m/s
94% warningclass
09:00
17°
1007.6 hPa 3.8 mm
100%
11.9°
2
Windvlaag: 2.9 m/s
94%
10:00
17°
1008.4 hPa 3.3 mm
100%
10.4°
2
Windvlaag: 3.4 m/s
97%
11:00
17°
1009.0 hPa 5.3 mm
100%
10.8°
2
Windvlaag: 3.4 m/s
93%
12:00
16°
1009.3 hPa
99%
8.7°
2
Windvlaag: 4.1 m/s
100%
13:00
16°
1009.8 hPa
99%
8.4°
2
Windvlaag: 4.7 m/s
92%
14:00
16°
1010.3 hPa
50%
8.8°
2
Windvlaag: 4.1 m/s
99%
15:00
16°
1010.6 hPa
33%
8.7°
2
Windvlaag: 3.5 m/s
100%
16:00
16°
1010.7 hPa
35%
8.4°
2
Windvlaag: 4 m/s
100%
17:00
16°
1010.7 hPa
30%
7.8°
2
Windvlaag: 4.1 m/s
100%
18:00
16°
1011.0 hPa
21%
7.8°
1
Windvlaag: 3.8 m/s
100%
19:00
15°
1011.3 hPa
24%
7.1°
1
Windvlaag: 4.5 m/s
100%
Temp/Neerslag /Baro Onweer/Dauwpunt
    Temp Baro Neerslag Dauwpunt Wind Bewolking  
 05:28     21:19    Daglengte: 15:51 Vandaag
20:00
22°
1013.1 hPa   13.4°
2
72%
23:00
19°
1013.5 hPa   13.2°
2
72%
 05:30     21:16    Daglengte: 15:46 Morgen
02:00
17°
1013.0 hPa   13.2°
1
71%
05:00
15°
1013.2 hPa   13.4°
1
85%
08:00
17°
1012.5 hPa   14.1°
1
83%
11:00
21°
1011.9 hPa   14.0°
2
72%
14:00
24°
1010.4 hPa   13.6°
3
29%
17:00
25°
1009.2 hPa   11.5°
4
37%
20:00
22°
1008.9 hPa   16.2°
4
30%
23:00
18°
1010.0 hPa 4.4 mm 16.8°
1
82%
 05:33     21:13    Daglengte: 15:40 Dinsdag 16 Aug
02:00
17°
1009.9 hPa 7.0 mm 16.9°
2
86% warningclass
05:00
17°
1008.7 hPa 7.8 mm 16.9°
2
86% warningclass
08:00
18°
1008.2 hPa 5.6 mm 17.1°
3
86% warningclass
11:00
19°
1007.7 hPa 3.3 mm 17.7°
3
86% warningclass
14:00
20°
1006.3 hPa 4.7 mm 18.0°
2
82% warningclass
17:00
19°
1006.0 hPa 11.0 mm 17.6°
2
99% warningclass
20:00
18°
1005.4 hPa 11.4 mm 17.3°
2
99% warningclass
23:00
17°
1006.0 hPa 10.2 mm 17.2°
2
98%
 05:35     21:10    Daglengte: 15:35 Woensdag 17 Aug
02:00
17°
1005.9 hPa 10.1 mm 16.8°
2
99%
05:00
16°
1006.0 hPa 11.1 mm 16.2°
2
100% warningclass
08:00
16°
1006.9 hPa 12.1 mm 13.9°
2
94% warningclass
11:00
17°
1009.0 hPa 12.4 mm 10.8°
2
93%
14:00
16°
1010.3 hPa   8.8°
2
99%
17:00
16°
1010.7 hPa   7.8°
2
100%
20:00
14°
1011.9 hPa   10.5°
1
93%
23:00
12°
1014.2 hPa 17.3 mm 11.0°
2
1%
 05:38     21:07    Daglengte: 15:29 Donderdag 18 Aug
02:00
11°
1015.3 hPa 17.4 mm 9.8°
2
1%
05:00
Voelt als: 8.7°
1016.1 hPa 17.4 mm 8.1°
2
1%
08:00
11°
1016.7 hPa 17.4 mm 7.9°
1
1%
11:00
17°
1014.9 hPa 17.4 mm 8.6°
1
0%
14:00
20°
1013.7 hPa 17.4 mm 9.7°
3
0%
17:00
22°
1012.6 hPa 17.4 mm 10.7°
3
0%
20:00
18°
1012.3 hPa 17.5 mm 12.6°
0
1%
23:00
16°
1012.4 hPa 17.5 mm 13.1°
0
1%
 05:40     21:04    Daglengte: 15:24 Vrijdag 19 Aug
02:00
14°
1011.8 hPa 17.5 mm 12.3°
1
1%
05:00
15°
1012.0 hPa 17.5 mm 13.2°
0
1%
08:00
17°
1011.8 hPa 17.6 mm 15.3°
1
1%
11:00
19°
1011.5 hPa 17.8 mm 16.7°
2
1%
14:00
18°
1011.0 hPa 18.1 mm 17.4°
2
1%
17:00
19°
1008.9 hPa 23.2 mm 19.1°
2
1%
20:00
18°
1008.1 hPa 36.6 mm 17.4°
1
1%
23:00
17°
1007.5 hPa 44.8 mm 17.0°
1
1%
 05:43     21:01    Daglengte: 15:18 Zaterdag 20 Aug
02:00
17°
1006.9 hPa 47.6 mm 16.8°
1
1%
05:00
17°
1007.0 hPa 49.9 mm 16.6°
1
1%
08:00
17°
1006.9 hPa 50.2 mm 16.9°
1
1%
11:00
18°
1007.0 hPa 50.7 mm 17.2°
2
1%
14:00
21°
1006.4 hPa 50.9 mm 15.5°
2
1%
20:00
18°
1005.9 hPa 51.1 mm 14.2°
2
1%
23:00
15°
1006.3 hPa 51.1 mm 13.4°
1
1%
 05:45     20:58    Daglengte: 15:13 Zondag 21 Aug
02:00
14°
1006.6 hPa 51.2 mm 13.4°
2
1%
05:00
14°
1006.1 hPa 51.3 mm 12.7°
3
1%
08:00
14°
1005.4 hPa 51.3 mm 10.8°
4
1%
11:00
15°
1004.1 hPa 51.5 mm 9.4°
5
1%
14:00
15°
1003.6 hPa 51.9 mm 9.5°
5
1%
17:00
16°
1003.6 hPa 52.2 mm 8.0°
5
1%
20:00
13°
1004.0 hPa 104.8 mm 7.3°
5
1%
 05:48     20:55    Daglengte: 15:07 Maandag 22 Aug
02:00
10°
1004.2 hPa 110.5 mm 8.7°
3
1%
08:00
10°
1005.4 hPa 114.5 mm 8.6°
1
1%
14:00
14°
1005.3 hPa 115.4 mm 10.2°
4
1%
20:00
13°
1006.4 hPa 116.2 mm 8.7°
4
1%
 05:51     20:52    Daglengte: 15:01 Dinsdag 23 Aug
02:00
11°
1006.8 hPa 117.1 mm 10.4°
2
1%
08:00
12°
1006.5 hPa 118.5 mm 11.6°
1
1%
14:00
14°
1007.4 hPa 118.6 mm 13.2°
2
1%
20:00
14°
1008.0 hPa 118.8 mm 13.3°
2
1%
 05:53     20:49    Daglengte: 14:56 Woensdag 24 Aug
02:00
13°
1009.8 hPa 119.0 mm 12.4°
1
1%
08:00
11°
1013.3 hPa 119.0 mm 7.7°
2
0%
14:00
19°
1014.8 hPa 0.2 mm 10.2°
2
70%
20:00
16°
1014.8 hPa 0.8 mm 11.1°
1
73%
 05:56     20:46    Daglengte: 14:50 Donderdag 25 Aug
02:00
11°
1016.5 hPa 0.2 mm 9.1°
0
60%
08:00
12°
1017.0 hPa 0.1 mm 9.5°
0
62%
14:00
19°
1016.7 hPa 0.3 mm 9.8°
1
54%
20:00
16°
1017.3 hPa 0.3 mm 10.4°
1
57%
 05:58     20:43    Daglengte: 14:45 Vrijdag 26 Aug
02:00
11°
1019.1 hPa 0.2 mm 8.6°
0
57%
08:00
12°
1019.5 hPa 0.1 mm 9.2°
0
63%
14:00
19°
1018.2 hPa 0.3 mm 9.9°
2
66%
20:00
15°
1017.8 hPa 0.6 mm 10.5°
1
61%
 06:01     20:40    Daglengte: 14:39 Zaterdag 27 Aug
02:00
11°
1019.3 hPa 0.2 mm 8.8°
0
63%
08:00
12°
1019.2 hPa 0.2 mm 9.3°
0
64%
14:00
18°
1017.8 hPa 0.5 mm 10.5°
1
67%
20:00
15°
1017.5 hPa 0.5 mm 10.6°
1
62%
 06:03     20:37    Daglengte: 14:34 Zondag 28 Aug
02:00
11°
1018.9 hPa 0.3 mm 8.8°
1
58%
08:00
12°
1018.7 hPa 0.3 mm 9.3°
1
56%
14:00
18°
1017.4 hPa 0.3 mm 9.7°
0
57%
20:00
15°
1017.2 hPa 0.4 mm 10.3°
1
61%
 06:06     20:34    Daglengte: 14:28 Maandag 29 Aug
02:00
11°
1018.8 hPa 0.1 mm 8.3°
1
53%
08:00
12°
1019.0 hPa 0.1 mm 8.5°
1
55%
14:00
19°
1018.0 hPa 0.5 mm 8.8°
1
55%
20:00
15°
1018.1 hPa 0.7 mm 9.9°
1
67%
  CAPE Lifted Index Hail Supercell Tornado SRH 3km CL BTM PRES CL TOP PRES Swiss DWD icon SMHI TS
 05:28     21:19    Daglengte: 15:51 Vandaag
20:00 71 J/kg 0.0 K 0 % 0 % 0 % 0 m²/s² 0 0 2.88 3
21:00 0 J/kg 1.1 K 0 % 0 % 0 % 0 m²/s² 0 0 4.61 3
22:00 0 J/kg 1.9 K 0 % 0 % 0 % 0 m²/s² 0 0 5.41 3
23:00 0 J/kg 2.2 K 0 % 0 % 0 % 0 m²/s² 0 0 4.15 3
 05:30     21:16    Daglengte: 15:46 Morgen
00:00 0 J/kg 2.9 K 0 % 0 % 0 % 0 m²/s² 0 0 3.17 3
01:00 0 J/kg 2.8 K 0 % 0 % 0 % 0 m²/s² 0 0 3.28 3
02:00 0 J/kg 2.9 K 0 % 0 % 0 % 0 m²/s² 0 0 3.29 3
03:00 0 J/kg 2.6 K 0 % 0 % 0 % 0 m²/s² 0 0 3.17 3
04:00 0 J/kg 2.2 K 0 % 0 % 0 % 0 m²/s² 0 0 3.04 3
05:00 0 J/kg 2.4 K 0 % 0 % 0 % 0 m²/s² 0 0 3.3 61
06:00 0 J/kg 2.9 K 0 % 0 % 0 % 0 m²/s² 0 0 3.65 3
07:00 0 J/kg 2.5 K 0 % 0 % 0 % 0 m²/s² 0 0 3.49 3
08:00 0 J/kg 1.5 K 0 % 0 % 0 % 0 m²/s² 0 0 2.61 3
09:00 0 J/kg 1.2 K 0 % 0 % 0 % 0 m²/s² 0 0 2.46 3
10:00 0 J/kg 1.0 K 0 % 0 % 0 % 0 m²/s² 0 0 2.14 3
11:00 20 J/kg 0.3 K 0 % 0 % 0 % 0 m²/s² 0 0 2.25 3
12:00 149 J/kg -0.7 K 0 % 0 % 0 % 0 m²/s² 0 0 1.82 3
13:00 180 J/kg -0.9 K 0 % 0 % 0 % 0 m²/s² 0 0 2.43 3
14:00 68 J/kg -0.3 K 0 % 0 % 0 % 0 m²/s² 0 0 2.7 3
15:00 3 J/kg 0.6 K 0 % 0 % 0 % 0 m²/s² 0 0 3.69 2
16:00 0 J/kg 1.6 K 0 % 0 % 0 % 0 m²/s² 0 0 4.78 3
17:00 0 J/kg 2.6 K 0 % 0 % 0 % 0 m²/s² 0 0 5.54 3
18:00 0 J/kg 1.3 K 0 % 0 % 0 % 0 m²/s² 0 0 4.15 3
19:00 79 J/kg -0.4 K 0 % 0 % 0 % 0 m²/s² 0 0 2.21 3
20:00 358 J/kg -1.9 K 0 % 0 % 0 % 0 m²/s² 0 0 0.02 3
21:00 256 J/kg -1.6 K 0 % 0 % 0 % 0 m²/s² 0 0 -0.16 3
22:00 300 J/kg -2.1 K 0 % 0 % 0 % 0 m²/s² 0 0 -0.78 80
23:00 245 J/kg -2.2 K 0 % 0 % 0 % 0 m²/s² 0 0 -0.34 95
 05:33     21:13    Daglengte: 15:40 Dinsdag 16 Aug
00:00 281 J/kg -2.5 K 0 % 0 % 0 % 0 m²/s² 0 0 -0.04 95
01:00 364 J/kg -2.4 K 0 % 0 % 0 % 0 m²/s² 0 0 0.45 95
02:00 443 J/kg -2.9 K 0 % 0 % 0 % 0 m²/s² 0 0 0.64 95
03:00 544 J/kg -3.1 K 0 % 0 % 0 % 0 m²/s² 0 0 1.25 95
04:00 519 J/kg -2.4 K 0 % 0 % 0 % 0 m²/s² 0 0 0.78 95
05:00 286 J/kg -1.7 K 0 % 0 % 0 % 0 m²/s² 0 0 -0.08 95
06:00 0 J/kg -0.7 K 0 % 0 % 0 % 0 m²/s² 0 0 0.11 95
07:00 0 J/kg -1.5 K 0 % 0 % 0 % 0 m²/s² 0 0 -0.96 95
08:00 38 J/kg -2.5 K 0 % 0 % 0 % 0 m²/s² 0 0 -1.75 95
09:00 238 J/kg -2.0 K 0 % 0 % 0 % 0 m²/s² 0 0 -1.37 95
10:00 216 J/kg -0.8 K 0 % 0 % 0 % 0 m²/s² 0 0 -0.71 95
11:00 393 J/kg -1.9 K 0 % 0 % 0 % 0 m²/s² 0 0 -1.78 95
12:00 963 J/kg -2.9 K 0 % 0 % 0 % 0 m²/s² 0 0 -2.9 95
13:00 1445 J/kg -4.7 K 0 % 0 % 0 % 0 m²/s² 0 0 -4.04 95
14:00 1517 J/kg -4.7 K 0 % 0 % 0 % 0 m²/s² 0 0 -3.47 95
15:00 1360 J/kg -4.1 K 0 % 0 % 0 % 0 m²/s² 0 0 -3.53 95
16:00 1487 J/kg -4.7 K 0 % 0 % 0 % 0 m²/s² 0 0 -4.52 95
17:00 44 J/kg -0.8 K 0 % 0 % 0 % 0 m²/s² 0 0 -0.23 95
18:00 90 J/kg -3.2 K 0 % 0 % 0 % 0 m²/s² 0 0 -2.66 95
19:00 226 J/kg -3.8 K 0 % 0 % 0 % 0 m²/s² 0 0 -3.08 80
20:00 454 J/kg -2.9 K 0 % 0 % 0 % 0 m²/s² 0 0 -2.12 3
21:00 344 J/kg -3.7 K 0 % 0 % 0 % 0 m²/s² 0 0 -0.85 80
22:00 679 J/kg -4.8 K 0 % 0 % 0 % 0 m²/s² 0 0 -1.23 80
23:00 1113 J/kg -3.6 K 0 % 0 % 0 % 0 m²/s² 0 0 -0.84 80
 05:35     21:10    Daglengte: 15:35 Woensdag 17 Aug
00:00 1026 J/kg -2.8 K 0 % 0 % 0 % 0 m²/s² 0 0 -0.61 95
01:00 924 J/kg -2.2 K 0 % 0 % 0 % 0 m²/s² 0 0 0.2 80
02:00 821 J/kg -2.3 K 0 % 0 % 0 % 0 m²/s² 0 0 -0.56 80
03:00 264 J/kg -0.8 K 0 % 0 % 0 % 0 m²/s² 0 0 0.76 95
04:00 101 J/kg -0.3 K 0 % 0 % 0 % 0 m²/s² 0 0 0.9 95
05:00 112 J/kg -0.3 K 0 % 0 % 0 % 0 m²/s² 0 0 0.66 95
06:00 126 J/kg -0.7 K 0 % 0 % 0 % 0 m²/s² 0 0 0.74 95
07:00 28 J/kg -0.1 K 0 % 0 % 0 % 0 m²/s² 0 0 1.31 80
08:00 7 J/kg 0.4 K 0 % 0 % 0 % 0 m²/s² 0 0 1.54 95
09:00 3 J/kg 1.4 K 0 % 0 % 0 % 0 m²/s² 0 0 2.3 80
10:00 1 J/kg 2.1 K 0 % 0 % 0 % 0 m²/s² 0 0 2.7 80
11:00 2 J/kg 2.8 K 0 % 0 % 0 % 0 m²/s² 0 0 3.76 3
12:00 0 J/kg 2.9 K 0 % 0 % 0 % 0 m²/s² 0 0 3.89 3
13:00 0 J/kg 3.0 K 0 % 0 % 0 % 0 m²/s² 0 0 4.47 61
14:00 0 J/kg 3.0 K 0 % 0 % 0 % 0 m²/s² 0 0 4.2 3
15:00 0 J/kg 2.8 K 0 % 0 % 0 % 0 m²/s² 0 0 3.64 3
16:00 0 J/kg 3.0 K 0 % 0 % 0 % 0 m²/s² 0 0 3.84 3
17:00 0 J/kg 3.2 K 0 % 0 % 0 % 0 m²/s² 0 0 3.77 3
18:00 0 J/kg 2.5 K 0 % 0 % 0 % 0 m²/s² 0 0 3.07 3
19:00 0 J/kg 1.4 K 0 % 0 % 0 % 0 m²/s² 0 0 1.61 3
Temp Baro Wind Neerslag
  EWN Forecast EWN WRFDA DWD ICON FMI HIRLAM MET Norway GFS
 05:28     21:19    Daglengte: 15:51 Vandaag
20:00 22.0° 1013.1 hPa 2.2 m/s 0.0 mm 22.7° 1012.4 hPa 2.3 m/s 0.0 mm 20.7° 1012.8 hPa 2.5 m/s -2.0 mm 22.6° 1013.6 hPa 1.1 m/s 0.0 mm 21.9° 1012.6 hPa 2.5 m/s
23:00 18.7° 1013.5 hPa 1.7 m/s 0.0 mm 16.1° 1011.9 hPa 2.1 m/s 0.0 mm 16.4° 1013.6 hPa 1.4 m/s 0.0 mm 19.5° 1014.1 hPa 1.7 m/s 0.0 mm 17.4° 1013.1 hPa 1.4 m/s
 05:30     21:16    Daglengte: 15:46 Morgen
02:00 17.1° 1013.0 hPa 1.3 m/s 0.0 mm 16.0° 1011.9 hPa 1.4 m/s 0.0 mm 15.7° 1013.0 hPa 1.3 m/s 0.2 mm 17.5° 1013.9 hPa 1.2 m/s 0.0 mm 16.5° 1012.9 hPa 0.5 m/s
05:00 15.3° 1013.2 hPa 0.6 m/s 0.0 mm 17.8° 1011.5 hPa 0.0 m/s 0.0 mm 14.7° 1013.4 hPa 0.5 m/s 0.1 mm 14.6° 1013.9 hPa 1.3 m/s 0.0 mm 16.6° 1012.4 hPa 0.7 m/s
08:00 16.7° 1012.5 hPa 0.6 m/s 0.0 mm 18.8° 1011.4 hPa 0.6 m/s 0.0 mm 15.9° 1012.6 hPa 0.6 m/s 0.1 mm 16.5° 1012.6 hPa 0.5 m/s 0.0 mm 18.0° 1012.0 hPa 0.9 m/s
11:00 20.7° 1011.9 hPa 1.9 m/s 0.0 mm 21.4° 1010.3 hPa 2.8 m/s 0.0 mm 18.3° 1012.4 hPa 1.6 m/s 0.1 mm 22.8° 1011.3 hPa 2.3 m/s 0.0 mm 20.2° 1011.8 hPa 2.6 m/s
14:00 23.6° 1010.4 hPa 3.4 m/s 0.0 mm 24.8° 1009.2 hPa 4.6 m/s 0.0 mm 22.0° 1011.0 hPa 3.3 m/s 0.0 mm 25.6° 1010.1 hPa 3.6 m/s 0.0 mm 21.9° 1011.4 hPa 2.6 m/s
17:00 24.6° 1009.2 hPa 3.7 m/s 0.0 mm 25.4° 1007.8 hPa 4.3 m/s 0.0 mm 23.9° 1009.5 hPa 3.5 m/s 0.0 mm 26.0° 1008.8 hPa 3.8 m/s 0.0 mm 24.1° 1009.5 hPa 1.7 m/s
20:00 22.4° 1008.9 hPa 3.6 m/s 0.0 mm 23.4° 1007.7 hPa 3.1 m/s 0.0 mm 20.9° 1009.3 hPa 4.3 m/s 0.0 mm 22.5° 1008.5 hPa 2.1 m/s 0.0 mm 20.7° 1008.9 hPa 0.8 m/s
23:00 17.7° 1010.0 hPa 1.5 m/s 4.4 mm 17.8° 1008.1 hPa 2.6 m/s 0.0 mm 17.3° 1010.5 hPa 1.3 m/s 2.2 mm 17.7° 1008.8 hPa 0.9 m/s 0.0 mm 17.5° 1009.7 hPa 0.9 m/s
 05:33     21:13    Daglengte: 15:40 Dinsdag 16 Aug
02:00 17.1° 1009.9 hPa 1.6 m/s 7.0 mm 16.5° 1008.5 hPa 1.8 m/s 0.1 mm 17.1° 1010.0 hPa 1.6 m/s 7.1 mm 17.2° 1009.2 hPa 1.1 m/s 0.0 mm 15.4° 1010.0 hPa 0.7 m/s
05:00 17.1° 1008.7 hPa 1.7 m/s 7.8 mm 18.1° 1007.8 hPa 2.4 m/s 0.4 mm 17.0° 1008.7 hPa 2.0 m/s 5.4 mm 17.0° 1008.7 hPa 1.1 m/s 0.0 mm 14.1° 1009.8 hPa 0.9 m/s
08:00 17.8° 1008.2 hPa 2.5 m/s 5.6 mm 18.1° 1007.4 hPa 2.9 m/s 0.9 mm 17.6° 1007.6 hPa 3.1 m/s 5.5 mm 19.0° 1008.2 hPa 0.7 m/s 0.0 mm 17.4° 1009.2 hPa 1.1 m/s
11:00 18.9° 1007.7 hPa 2.5 m/s 3.3 mm 19.6° 1006.3 hPa 2.8 m/s 4.4 mm 17.9° 1007.7 hPa 3.8 m/s 6.4 mm 21.2° 1007.5 hPa 1.6 m/s 0.0 mm 18.6° 1009.1 hPa 2.0 m/s
14:00 19.9° 1006.3 hPa 1.9 m/s 4.7 mm 25.3° 1003.9 hPa 6.8 m/s 9.2 mm 18.6° 1006.5 hPa 2.5 m/s 4.3 mm 21.4° 1005.7 hPa 1.2 m/s 0.0 mm 22.4° 1007.1 hPa 3.1 m/s
17:00 18.6° 1006.0 hPa 2.4 m/s 11.0 mm 18.7° 1004.3 hPa 3.9 m/s 29.2 mm 18.7° 1006.2 hPa 2.1 m/s 6.0 mm 19.5° 1006.2 hPa 2.3 m/s
20:00 17.8° 1005.4 hPa 2.0 m/s 11.4 mm 19.1° 1002.9 hPa 3.6 m/s 41.6 mm 17.6° 1005.7 hPa 1.1 m/s 2.5 mm 19.1° 1004.8 hPa 2.0 m/s
23:00 17.3° 1006.0 hPa 2.4 m/s 10.2 mm 19.4° 1003.3 hPa 5.0 m/s 42.9 mm 16.4° 1006.2 hPa 0.7 m/s 2.4 mm 16.3° 1005.9 hPa 2.6 m/s
 05:35     21:10    Daglengte: 15:35 Woensdag 17 Aug
02:00 16.8° 1005.9 hPa 2.1 m/s 10.1 mm 18.9° 1003.0 hPa 3.7 m/s 44.9 mm 15.5° 1006.1 hPa 0.1 m/s 1.7 mm 16.9° 1005.9 hPa 3.2 m/s
05:00 16.2° 1006.0 hPa 2.1 m/s 11.1 mm 17.0° 1003.1 hPa 3.1 m/s 46.4 mm 15.3° 1006.1 hPa 0.7 m/s 3.0 mm 16.4° 1006.2 hPa 2.7 m/s
08:00 16.4° 1006.9 hPa 1.6 m/s 12.1 mm 17.9° 1004.6 hPa 3.2 m/s 47.0 mm 15.8° 1006.9 hPa 0.4 m/s 5.4 mm 16.8° 1007.2 hPa 2.8 m/s
11:00 17.4° 1009.0 hPa 2.1 m/s 12.4 mm 19.2° 1006.9 hPa 4.3 m/s 47.0 mm 15.4° 1009.2 hPa 1.6 m/s 1.7 mm 17.4° 1008.2 hPa 3.3 m/s
14:00 16.2° 1010.3 hPa 1.9 m/s 0.0 mm 19.0° 1009.5 hPa 4.1 m/s 47.0 mm 15.6° 1010.5 hPa 1.4 m/s 0.1 mm 21.9° 1007.9 hPa 2.8 m/s
17:00 16.0° 1010.7 hPa 1.7 m/s 0.0 mm 17.9° 1010.5 hPa 4.1 m/s 47.0 mm 15.6° 1010.8 hPa 1.1 m/s 0.0 mm 22.7° 1007.8 hPa 2.1 m/s
20:00 14.2° 1011.9 hPa 1.3 m/s 0.0 mm 13.3° 1012.4 hPa 2.9 m/s 48.4 mm 14.4° 1011.8 hPa 0.9 m/s 0.0 mm 13.5° 1011.4 hPa 3.2 m/s
23:00 11.9° 1014.2 hPa 2.1 m/s 17.3 mm 11.9° 1014.2 hPa 2.1 m/s 17.3 mm
 05:38     21:07    Daglengte: 15:29 Donderdag 18 Aug
02:00 11.1° 1015.3 hPa 1.9 m/s 17.4 mm 11.1° 1015.3 hPa 1.9 m/s 17.4 mm
05:00 9.5° 1016.1 hPa 1.8 m/s 17.4 mm 9.5° 1016.1 hPa 1.8 m/s 17.4 mm
08:00 11.0° 1016.7 hPa 1.4 m/s 17.4 mm 11.0° 1016.7 hPa 1.4 m/s 17.4 mm
11:00 17.2° 1014.9 hPa 0.8 m/s 17.4 mm 17.2° 1014.9 hPa 0.8 m/s 17.4 mm
14:00 20.5° 1013.7 hPa 2.6 m/s 17.4 mm 20.5° 1013.7 hPa 2.6 m/s 17.4 mm
17:00 21.8° 1012.6 hPa 2.6 m/s 17.4 mm 21.8° 1012.6 hPa 2.6 m/s 17.4 mm
20:00 17.6° 1012.3 hPa 0.4 m/s 17.5 mm 17.6° 1012.3 hPa 0.4 m/s 17.5 mm
23:00 16.0° 1012.4 hPa 0.4 m/s 17.5 mm 16.0° 1012.4 hPa 0.4 m/s 17.5 mm
 05:40     21:04    Daglengte: 15:24 Vrijdag 19 Aug
02:00 14.1° 1011.8 hPa 0.8 m/s 17.5 mm 14.1° 1011.8 hPa 0.8 m/s 17.5 mm
05:00 14.9° 1012.0 hPa 0.5 m/s 17.5 mm 14.9° 1012.0 hPa 0.5 m/s 17.5 mm
08:00 17.2° 1011.8 hPa 1.1 m/s 17.6 mm 17.2° 1011.8 hPa 1.1 m/s 17.6 mm
11:00 18.6° 1011.5 hPa 2.1 m/s 17.8 mm 18.6° 1011.5 hPa 2.1 m/s 17.8 mm
14:00 18.4° 1011.0 hPa 2.0 m/s 18.1 mm 18.4° 1011.0 hPa 2.0 m/s 18.1 mm
17:00 19.4° 1008.9 hPa 2.3 m/s 23.2 mm 19.4° 1008.9 hPa 2.3 m/s 23.2 mm
20:00 17.6° 1008.1 hPa 0.8 m/s 36.6 mm 17.6° 1008.1 hPa 0.9 m/s 36.6 mm
23:00 17.0° 1007.5 hPa 0.8 m/s 44.8 mm 17.0° 1007.5 hPa 0.8 m/s 44.8 mm
 05:43     21:01    Daglengte: 15:18 Zaterdag 20 Aug
02:00 16.8° 1006.9 hPa 1.3 m/s 47.6 mm 16.8° 1006.9 hPa 1.3 m/s 47.6 mm
05:00 16.6° 1007.0 hPa 1.2 m/s 49.9 mm 16.6° 1007.0 hPa 1.2 m/s 49.9 mm
08:00 17.0° 1006.9 hPa 0.8 m/s 50.2 mm 17.0° 1006.9 hPa 0.8 m/s 50.2 mm
11:00 18.0° 1007.0 hPa 1.5 m/s 50.7 mm 18.0° 1007.0 hPa 1.5 m/s 50.7 mm
14:00 20.8° 1006.4 hPa 2.2 m/s 50.9 mm 20.8° 1006.4 hPa 2.2 m/s 50.9 mm
20:00 17.5° 1005.9 hPa 1.5 m/s 51.1 mm 17.5° 1005.9 hPa 1.5 m/s 51.1 mm
23:00 14.5° 1006.3 hPa 1.1 m/s 51.1 mm 14.5° 1006.3 hPa 1.1 m/s 51.1 mm
 05:45     20:58    Daglengte: 15:13 Zondag 21 Aug
02:00 14.5° 1006.6 hPa 2.0 m/s 51.2 mm 14.5° 1006.6 hPa 2.0 m/s 51.2 mm
05:00 14.2° 1006.1 hPa 2.8 m/s 51.3 mm 14.2° 1006.1 hPa 2.8 m/s 51.3 mm
08:00 14.4° 1005.4 hPa 3.8 m/s 51.3 mm 14.4° 1005.4 hPa 3.8 m/s 51.3 mm
11:00 15.0° 1004.1 hPa 4.8 m/s 51.5 mm 15.0° 1004.1 hPa 4.8 m/s 51.5 mm
14:00 15.1° 1003.6 hPa 4.6 m/s 51.9 mm 15.1° 1003.6 hPa 4.6 m/s 51.9 mm
17:00 15.7° 1003.6 hPa 5.5 m/s 52.2 mm 15.7° 1003.6 hPa 5.5 m/s 52.2 mm
20:00 13.2° 1004.0 hPa 4.8 m/s 52.6 mm 13.2° 1004.0 hPa 4.8 m/s 52.6 mm
 05:48     20:55    Daglengte: 15:07 Maandag 22 Aug
02:00 10.1° 1004.2 hPa 3.2 m/s 55.9 mm 10.1° 1004.2 hPa 3.2 m/s 55.9 mm
08:00 10.1° 1005.4 hPa 1.2 m/s 57.6 mm 10.1° 1005.4 hPa 1.2 m/s 57.6 mm
14:00 14.3° 1005.3 hPa 3.5 m/s 57.7 mm 14.3° 1005.3 hPa 3.5 m/s 57.7 mm
20:00 12.8° 1006.4 hPa 3.6 m/s 58.1 mm 12.8° 1006.4 hPa 3.6 m/s 58.1 mm
 05:51     20:52    Daglengte: 15:01 Dinsdag 23 Aug
02:00 10.6° 1006.8 hPa 2.1 m/s 59.0 mm 10.6° 1006.8 hPa 2.1 m/s 59.0 mm
08:00 11.7° 1006.5 hPa 1.5 m/s 59.3 mm 11.7° 1006.5 hPa 1.5 m/s 59.3 mm
14:00 14.3° 1007.4 hPa 2.0 m/s 59.3 mm 14.4° 1007.4 hPa 2.0 m/s 59.3 mm
20:00 14.5° 1008.0 hPa 2.0 m/s 59.4 mm 14.5° 1008.0 hPa 2.0 m/s 59.4 mm
 05:53     20:49    Daglengte: 14:56 Woensdag 24 Aug
02:00 13.4° 1009.8 hPa 1.0 m/s 59.5 mm 13.4° 1009.8 hPa 1.0 m/s 59.5 mm
08:00 11.3° 1013.3 hPa 1.7 m/s 59.5 mm 11.3° 1013.3 hPa 1.7 m/s 59.5 mm
14:00 18.5° 1014.8 hPa 1.7 m/s 0.2 mm
20:00 15.7° 1014.8 hPa 1.1 m/s 0.8 mm
 05:56     20:46    Daglengte: 14:50 Donderdag 25 Aug
02:00 11.0° 1016.5 hPa 0.4 m/s 0.2 mm
08:00 12.3° 1017.0 hPa 0.3 m/s 0.1 mm
14:00 18.7° 1016.7 hPa 0.9 m/s 0.3 mm
20:00 15.6° 1017.3 hPa 0.6 m/s 0.3 mm
 05:58     20:43    Daglengte: 14:45 Vrijdag 26 Aug
02:00 10.9° 1019.1 hPa 0.3 m/s 0.2 mm
08:00 12.2° 1019.5 hPa 0.1 m/s 0.1 mm
14:00 18.8° 1018.2 hPa 1.6 m/s 0.3 mm
20:00 15.5° 1017.8 hPa 1.0 m/s 0.6 mm
 06:01     20:40    Daglengte: 14:39 Zaterdag 27 Aug
02:00 11.0° 1019.3 hPa 0.2 m/s 0.2 mm
08:00 12.3° 1019.2 hPa 0.2 m/s 0.2 mm
14:00 18.0° 1017.8 hPa 0.8 m/s 0.5 mm
20:00 15.0° 1017.5 hPa 0.5 m/s 0.5 mm
 06:03     20:37    Daglengte: 14:34 Zondag 28 Aug
02:00 10.8° 1018.9 hPa 1.0 m/s 0.3 mm
08:00 11.9° 1018.7 hPa 0.9 m/s 0.3 mm
14:00 18.3° 1017.4 hPa 0.5 m/s 0.3 mm
20:00 15.3° 1017.2 hPa 0.6 m/s 0.4 mm
 06:06     20:34    Daglengte: 14:28 Maandag 29 Aug
02:00 10.7° 1018.8 hPa 0.7 m/s 0.1 mm
08:00 11.8° 1019.0 hPa 0.7 m/s 0.1 mm
14:00 18.9° 1018.0 hPa 0.5 m/s 0.5 mm
20:00 14.8° 1018.1 hPa 0.8 m/s 0.7 mm
FMI Hirlam - 7.5 km EWN WRFDA - 12 km DWD ICON - 7 km GFS - 25 km Basiskaart






























































Updatetijd (Europe/Amsterdam) Resolutie Lengte Stap
FMI Hirlam 20:00, 02:00, 08:00, 14:00 7.5 km 49h 1h
EWN WRFDA 16:30, 22:30, 04:30, 10:30 12 km 73h 1h
DWD ICON 18:00, 00:00, 06:00, 12:00 7 km 75h 1h
GFS 19:45, 01:45, 07:45, 13:45 25 km 237h 3h
30+ mm
25-30 mm
20-25 mm
15-20 mm
10-15 mm
6-10 mm
4-6 mm
2-4 mm
1-2 mm
0.5-1 mm
0.2-0.5 mm
0.1-0.2 mm
30+ mm
25-30 mm
20-25 mm
15-20 mm
10-15 mm
6-10 mm
4-6 mm
2-4 mm
1-2 mm
0.5-1 mm
0.2-0.5 mm
0.1-0.2 mm
Sneeuwval
Natte sneeuw
Hagel
Vorst
30+ mm
25-30 mm
20-25 mm
15-20 mm
10-15 mm
6-10 mm
4-6 mm
2-4 mm
1-2 mm
0.5-1 mm
0.2-0.5 mm
0.1-0.2 mm
Sneeuwval
Natte sneeuw
Hagel
Vorst
Onweer
50 mm
40 mm
30 mm
26 mm
22 mm
18 mm
14 mm
10 mm
9 mm
8 mm
7 mm
6 mm
5 mm
4.5 mm
4 mm
3.5 mm
3 mm
2.5 mm
2 mm
1.5 mm
1 mm
0.8 mm
0.6 mm
0.4 mm
0.2 mm
0.05 mm
35°
30°
25°
20°
15°
10°
-5°
-10°
-15°
-20°
-25°
-30°
-35°
33> m/s
29 m/s
25 m/s
21 m/s
17 m/s
14 m/s
11 m/s
8 m/s
5 m/s
3 m/s
0 m/s
2600 J/kg
2400 J/kg
2200 J/kg
2000 J/kg
1800 J/kg
1600 J/kg
1400 J/kg
1200 J/kg
1000 J/kg
800 J/kg
600 J/kg
400 J/kg
200 J/kg
70 dBZ
65 dBZ
60 dBZ
55 dBZ
50 dBZ
45 dBZ
40 dBZ
35 dBZ
30 dBZ
25 dBZ
20 dBZ
15 dBZ
10 dBZ
5 dBZ
-1 K
-2 K
-3 K
-4 K
-5 K
-6 K
-7 K
-8 K
-9 K
950 m²/s²
900 m²/s²
850 m²/s²
800 m²/s²
750 m²/s²
700 m²/s²
650 m²/s²
600 m²/s²
550 m²/s²
500 m²/s²
450 m²/s²
400 m²/s²
350 m²/s²
300 m²/s²
250 m²/s²
200 m²/s²
150 m²/s²
100 m²/s²
46 m/s
44 m/s
42 m/s
40 m/s
38 m/s
36 m/s
34 m/s
32 m/s
30 m/s
28 m/s
26 m/s
24 m/s
22 m/s
20 m/s
16 m/s
12 m/s
8 m/s
4 m/s
30 m/s
28 m/s
26 m/s
24 m/s
22 m/s
20 m/s
18 m/s
16 m/s
14 m/s
12 m/s
10 m/s
8 m/s
6 m/s
4 m/s
2 m/s
3.0
2.8
2.6
2.4
2.2
2.0
1.8
1.6
1.4
1.2
1.0
0.8
0.6
0.4
0.2
15
14
13
12
11
10